Regional Weather Roundup
Issued by NWS

Home | Current Version | Previous Version | Graphics & Text | Print | Product List | Glossary On
Versions: 1 2 3 4 5 6 7 8 9 10 11 12 13 14 15 16 17 18 19 20 21 22 23 24 25 26 27 28 29 30 31 32 33 34 35 36 37 38 39 40 41 42 43 44 45 46 47 48 49 50
000
ASUS43 KLOT 081803
RWRIL

ILLINOIS REGIONAL WEATHER ROUNDUP
NATIONAL WEATHER SERVICE CHICAGO/ROMEOVILLE IL
1200 PM CST THU DEC 08 2016

NOTE: "FAIR" INDICATES FEW OR NO CLOUDS BELOW 12,000 FEET WITH NO
SIGNIFICANT WEATHER AND/OR OBSTRUCTIONS TO VISIBILITY.

* THESE STATIONS ARE NOT UNDER NWS QUALITY CONTROL. THEY ALSO MAY NOT
  REPORT WEATHER SUCH AS PRECIPITATION OR FOG.

ILZ001-002-007-009-015-016-024-081900-
NORTHWEST ILLINOIS

CITY           SKY/WX    TMP DP  RH WIND       PRES   REMARKS
MOLINE         FLURRIES  20  11  68 W15G24    30.42S WCI   6
6HR MIN TEMP:  16; 6HR MAX TEMP:  20; 6HR PCP: TRACE;

STERLING*      FLURRIES  19  13  77 W23       30.36S WCI   2
$$

ILZ003-004-008-010-011-017-018-081900-
NORTH CENTRAL ILLINOIS

CITY           SKY/WX    TMP DP  RH WIND       PRES   REMARKS
ROCKFORD       FLURRIES  19  12  74 W13G25    30.33S WCI   6
6HR MIN TEMP:  15; 6HR MAX TEMP:  19; 6HR PCP: TRACE;

FREEPORT*      CLOUDY    19  12  76 W17G24    30.33S WCI   3
ROCHELLE*      FLURRIES  18  13  79 W20       30.33S WCI   2
$$

ILZ005-006-012>014-019>023-081900-
NORTHEAST ILLINOIS

CITY           SKY/WX    TMP DP  RH WIND       PRES   REMARKS
CHICAGO-OHARE  PTSUNNY   19  11  70 W18G29    30.27S WCI   4
6HR MIN TEMP:  17; 6HR MAX TEMP:  20; 6HR PCP: TRACE;

CHICAGO-MIDWAY FLURRIES  20  10  65 W16G28    30.29S WCI   6
6HR MIN TEMP:  18; 6HR MAX TEMP:  22; 6HR PCP: TRACE;

AURORA         FLURRIES  19  12  74 W20G30    30.32S WCI   3
6HR MIN TEMP:  17; 6HR MAX TEMP:  19; 6HR PCP: TRACE;

LANSING*       CLOUDY    19  14  79 W20G28    30.29S WCI   3
WAUKEGAN       MOSUNNY   21  11  65 W15G26    30.22S WCI   8
6HR MIN TEMP:  17; 6HR MAX TEMP:  22;

DUPAGE AIRPORT CLOUDY    18  10  71 W21       30.29S WCI   1
6HR MIN TEMP:  16; 6HR MAX TEMP:  20;

KANKAKEE*      FLURRIES  19  12  73 W18G25    30.34S WCI   4
WHEELING       PTSUNNY   20  10  65 W14G24    30.28S WCI   7
6HR MIN TEMP:  17; 6HR MAX TEMP:  21; 6HR PCP: TRACE;

MORRIS*        FLURRIES  19  12  76 W22       30.34S WCI   2
NORTHERLY ISL    N/A     20  12  71 W16         N/A  WCI   6
$$

LMZ740>746-081900-
SOUTHERN LAKE MICHIGAN

STATION/POSITION SKY/WX   TEMP    WIND        PRES    VSBY  WAVE
                          AIR SEA DIR/SP/G                  HT/PER
                          (F)     (DEG/KT/KT) (MB)    (MI)  (FT/S)
HARRISON CRIB              20     260/ 28/ 30   N/A
BURNHAM HARBOR             20     260/ 12/ 22   N/A
CALUMET HARBOR             19     250/ 13/ 24 1024.6S
BURNS HARBOR               21     250/ 23/ 28 1025.1F
MICHIGAN CITY              21     230/ 27/ 33   N/A
$$

ILZ025>027-034>036-040-047-049-050-058-095>099-081900-
WEST-CENTRAL ILLINOIS

CITY           SKY/WX    TMP DP  RH WIND       PRES   REMARKS
QUINCY         MOSUNNY   23  10  57 NW17      30.48F WCI   9
GALESBURG*     FLURRIES  18  11  73 W21G29    30.43F WCI   2
JACKSONVILLE*  CLOUDY    22  12  65 W16G23    30.47F WCI   9
PITTSFIELD*    SUNNY     24  11  58 W14G26    30.49F WCI  11
$$

ILZ028>032-037-038-041>044-048-051>054-059>061-081900-
CENTRAL ILLINOIS

CITY           SKY/WX    TMP DP  RH WIND       PRES   REMARKS
PONTIAC        MIX PCPN  22  15  74 W24G30    30.37F WCI   5
BLOOMINGTON    FLURRIES  21  13  71 W21G26    30.37F WCI   5
DECATUR        CLOUDY    22  12  65 W16G24    30.42F WCI   8
PEORIA         CLOUDY    20   9  62 W17G28    30.43F WCI   5
6HR MIN TEMP:  18; 6HR MAX TEMP:  20; 6HR PCP: TRACE;

LACON*         CLOUDY    19  10  68 W18G25    30.40S WCI   4
LINCOLN*       CLOUDY    23  12  62 W10G23    30.43S WCI  13
SPRINGFIELD    CLOUDY    24  14  65 W18       30.45F WCI  10
6HR MIN TEMP:  20; 6HR MAX TEMP:  24; 6HR PCP: TRACE;

TAYLORVILLE    CLOUDY    22  12  67 W17G24    30.45F WCI   7
6HR MIN TEMP:  19; 6HR MAX TEMP:  22;

$$

ILZ033-039-045-046-055>057-062-063-081900-
EAST-CENTRAL ILLINOIS

CITY           SKY/WX    TMP DP  RH WIND       PRES   REMARKS
CHAMPAIGN      CLOUDY    22  12  65 W22       30.39F WCI   6
RANTOUL*       FLURRIES  24  16  72 W18G26    30.37F WCI  10
MATTOON        CLOUDY    22  12  65 NW18      30.41F WCI   7
PARIS*         CLOUDY    22  15  74 W22       30.40F WCI   7
$$

ILZ079-100>102-081900-
SOUTHWEST ILLINOIS

CITY           SKY/WX    TMP DP  RH WIND       PRES   REMARKS
ALTON          MOSUNNY   27  14  59 W17G25    30.48F WCI  14
BELLEVILLE     SUNNY     29  12  49 NW14G22   30.48F WCI  18
CAHOKIA*       SUNNY     28  11  48 NW15      30.50F WCI  16
SPARTA*        SUNNY     28  14  55 W10       30.50F WCI  19
$$

ILZ064>066-069>071-074>076-080>082-084>086-088>090-092>094-081900-
SOUTH-CENTRAL ILLINOIS

CITY           SKY/WX    TMP DP  RH WIND       PRES   REMARKS
CARBONDALE     SUNNY     30  14  51 NW15      30.49F WCI  19
6HR MIN TEMP:  22; 6HR MAX TEMP:  30;

CAIRO*         SUNNY     32  15  49 W9        30.49F WCI  24
EFFINGHAM*     PTSUNNY   26  17  67 W16       30.46S WCI  14
CENTRALIA*     PTSUNNY   29  18  64 W17       30.46S WCI  17
SALEM*         MOSUNNY   29  16  58 W14       30.46F WCI  18
METROPOLIS*    SUNNY     33  15  46 W8        30.48F WCI  26
$$

ILZ067-068-072-073-078-083-087-091-081900-
SOUTHEAST ILLINOIS

CITY           SKY/WX    TMP DP  RH WIND       PRES   REMARKS
LAWRENCEVILLE  PTSUNNY   28  16  60 W14       30.43F WCI  17
FLORA*         MOSUNNY   29  16  58 W14G23    30.46F WCI  18
FAIRFIELD*     MOSUNNY   29  16  58 W7        30.45F WCI  22
HARRISBURG*    SUNNY     32  17  54 NW13      30.47F WCI  22
ROBINSON*      CLOUDY    25  16  68 W17       30.44F WCI  11
CARMI*         SUNNY     30  18  60 W16G22    30.45F WCI  18
$$

ABBREVIATIONS USED IN REMARKS
   TC - TEMPERATURE IN CELSIUS
  WCI - WIND CHILL INDEX
   HX - HEAT INDEX
  VSB - VISIBILITY
$$





USA.gov is the U.S. government's official web portal to all federal, state and local government web resources and services.